Date String (YYYY-MM-DD hh:mm:ss) UTC,Instrument flags,Ambient pressure (hPa),Sample flow (lpm),Bypass flow (lpm),Sample temperature (°C),Ambient temperature (°C),ASC tube jacket temperature (°C),LED temperature (°C),Box temperature (°C),Sample RH (%),Span deviation,Mass concentration (μg/m³),Mass concentration (μg/m³),Mass concentration (μg/m³)
DateTimeUTC,F1_M11,P_M11,Q1_M11,Q2_M11,T1_M11,T2_M11,T3_M11,T4_M11,T5_M11,U1_M11,ZSPAN_M11,X0_M11,X2_M11,X1_M11
2022-03-29 01:00:00,,0814.7,5.01,0.00,29.7,26.4,00.0,38.7,31.2,05.6,0000.0,0010.89,0002.69,0001.06
2022-03-29 01:01:00,,0814.8,4.99,0.00,29.6,26.9,00.0,38.7,31.2,05.7,0000.0,0010.76,0002.74,0001.08
2022-03-29 01:02:00,,0814.7,4.99,0.00,29.6,27.3,00.0,38.7,31.3,05.7,0000.0,0011.09,0002.84,0001.08
2022-03-29 01:03:00,,0814.7,5.01,0.00,29.7,27.6,00.0,38.6,31.3,05.7,0000.0,0010.38,0002.92,0001.09
2022-03-29 01:04:00,,0814.7,5.00,0.00,29.7,27.8,00.0,38.6,31.4,05.7,0000.0,0009.46,0002.95,0001.09
2022-03-29 01:05:00,,0814.7,5.01,0.00,29.7,28.1,00.0,38.6,31.4,05.8,0000.0,0009.61,0002.95,0001.11
2022-03-29 01:06:00,,0814.7,4.99,0.00,29.7,28.2,00.0,38.6,31.4,05.8,0000.0,0009.40,0002.85,0001.10
2022-03-29 01:07:00,,0814.7,5.01,0.00,29.7,28.4,00.0,38.6,31.4,05.9,0000.0,0008.53,0002.69,0001.09
2022-03-29 01:08:00,,0814.6,5.00,0.00,29.7,28.5,00.0,38.7,31.5,05.8,0000.0,0008.15,0002.54,0001.07
2022-03-29 01:09:00,,0814.8,4.98,0.00,29.8,28.6,00.0,38.7,31.5,05.9,0000.0,0007.90,0002.38,0001.04
2022-03-29 01:10:00,,0814.8,5.02,0.00,29.8,28.7,00.0,38.7,31.5,05.9,0000.0,0007.71,0002.21,0001.01
2022-03-29 01:11:00,,0814.8,4.98,0.00,29.8,28.7,00.0,38.7,31.5,05.9,0000.0,0007.46,0002.15,0001.00
2022-03-29 01:12:00,,0814.9,5.01,0.00,29.8,28.8,00.0,38.7,31.6,05.8,0000.0,0007.52,0002.13,0000.99
2022-03-29 01:13:00,,0814.8,5.01,0.00,29.8,28.9,00.0,38.7,31.6,05.8,0000.0,0007.13,0002.03,0000.99
2022-03-29 01:14:00,,0814.7,4.99,0.00,29.9,28.9,00.0,38.7,31.6,05.9,0000.0,0006.74,0001.99,0000.99
2022-03-29 01:15:00,,0814.6,5.02,0.00,29.9,29.0,00.0,38.7,31.6,06.1,0000.0,0006.57,0001.98,0000.98
2022-03-29 01:16:00,,0814.8,4.99,0.00,29.9,29.0,00.0,38.8,31.6,05.9,0000.0,0006.09,0001.97,0000.96
2022-03-29 01:17:00,,0814.9,5.01,0.00,29.9,29.0,00.0,38.8,31.7,05.9,0000.0,0006.23,0001.95,0000.97
2022-03-29 01:18:00,,0814.8,5.00,0.00,29.9,29.0,00.0,38.8,31.7,06.0,0000.0,0006.76,0001.96,0000.97
2022-03-29 01:19:00,,0814.8,5.00,0.00,29.9,29.0,00.0,38.8,31.7,06.0,0000.0,0006.67,0001.95,0000.98
2022-03-29 01:20:00,,0815.1,5.02,0.00,29.9,29.1,00.0,38.8,31.7,06.0,0000.0,0006.22,0001.93,0000.97
2022-03-29 01:21:00,,0815.1,4.99,0.00,30.0,29.1,00.0,38.8,31.7,06.0,0000.0,0005.86,0001.96,0000.98
2022-03-29 01:22:00,,0814.9,5.01,0.00,30.0,29.1,00.0,38.8,31.7,05.9,0000.0,0005.71,0001.88,0001.00
2022-03-29 01:23:00,,0815.1,5.01,0.00,30.0,27.9,00.0,38.9,31.5,06.0,0000.0,0006.87,0001.85,0001.01
2022-03-29 01:24:00,,0815.0,5.00,0.00,29.8,26.0,00.0,38.8,31.2,06.1,0000.0,0006.59,0001.83,0001.00
2022-03-29 01:25:00,,0815.0,4.99,0.00,29.7,25.9,00.0,38.8,31.1,06.1,0000.0,0006.56,0001.79,0000.99
2022-03-29 01:26:00,,0815.1,5.00,0.00,29.6,26.3,00.0,38.7,31.1,06.1,0000.0,0006.36,0001.78,0001.00
2022-03-29 01:27:00,,0815.0,5.00,0.00,29.6,26.7,00.0,38.7,31.2,06.1,0000.0,0006.03,0001.77,0001.00
2022-03-29 01:28:00,,0815.0,5.00,0.00,29.6,27.1,00.0,38.7,31.2,06.0,0000.0,0005.72,0001.80,0001.00
2022-03-29 01:29:00,,0814.8,5.01,0.00,29.6,27.5,00.0,38.7,31.2,06.0,0000.0,0005.27,0001.82,0001.00
2022-03-29 01:30:00,,0815.0,5.02,0.00,29.6,27.7,00.0,38.6,31.3,06.1,0000.0,0005.45,0001.85,0001.00
2022-03-29 01:31:00,,0814.9,5.02,0.00,29.6,28.0,00.0,38.6,31.3,06.1,0000.0,0005.74,0001.95,0001.01
2022-03-29 01:32:00,,0814.7,4.99,0.00,29.6,28.1,00.0,38.6,31.3,06.1,0000.0,0005.77,0001.95,0001.01
2022-03-29 01:33:00,,0814.7,5.01,0.00,29.7,28.3,00.0,38.6,31.3,06.1,0000.0,0005.75,0001.94,0001.00
2022-03-29 01:34:00,,0814.5,4.99,0.00,29.7,28.4,00.0,38.6,31.4,06.2,0000.0,0004.64,0001.89,0000.99
2022-03-29 01:35:00,,0814.4,5.01,0.00,29.7,28.5,00.0,38.6,31.4,06.2,0000.0,0004.02,0001.84,0000.98
2022-03-29 01:36:00,,0814.4,4.99,0.00,29.7,28.6,00.0,38.6,31.4,06.1,0000.0,0003.98,0001.87,0000.99
2022-03-29 01:37:00,,0814.4,5.02,0.00,29.7,28.7,00.0,38.6,31.4,06.1,0000.0,0004.06,0001.88,0000.99
2022-03-29 01:38:00,,0814.4,5.00,0.00,29.7,28.7,00.0,38.7,31.5,06.1,0000.0,0004.09,0001.91,0000.99
2022-03-29 01:39:00,,0814.7,4.99,0.00,29.8,28.8,00.0,38.7,31.5,06.1,0000.0,0004.33,0001.90,0001.00
2022-03-29 01:40:00,,0814.7,5.01,0.00,29.8,28.8,00.0,38.7,31.5,06.1,0000.0,0004.68,0001.94,0001.00
2022-03-29 01:41:00,,0814.6,4.98,0.00,29.8,28.9,00.0,38.7,31.5,06.1,0000.0,0004.84,0001.97,0001.01
2022-03-29 01:42:00,,0814.8,5.01,0.00,29.8,28.9,00.0,38.7,31.5,06.2,0000.0,0004.99,0001.94,0001.03
2022-03-29 01:43:00,,0814.9,4.99,0.00,29.8,28.9,00.0,38.7,31.5,06.2,0000.0,0006.26,0001.95,0001.03
2022-03-29 01:44:00,,0815.1,5.00,0.00,29.9,29.0,00.0,38.7,31.6,06.2,0000.0,0007.42,0001.93,0001.03
2022-03-29 01:45:00,,0815.0,5.00,0.00,29.9,29.0,00.0,38.7,31.6,06.2,0000.0,0008.92,0002.00,0001.05
2022-03-29 01:46:00,,0815.0,5.02,0.00,29.9,29.0,00.0,38.8,31.6,06.2,0000.0,0009.30,0002.07,0001.06
2022-03-29 01:47:00,,0815.0,5.00,0.00,29.9,29.0,00.0,38.8,31.6,06.2,0000.0,0009.37,0002.07,0001.06
2022-03-29 01:48:00,,0815.0,4.99,0.00,29.9,29.0,00.0,38.8,31.6,06.2,0000.0,0009.55,0002.07,0001.07
2022-03-29 01:49:00,,0814.8,5.01,0.00,29.9,29.0,00.0,38.8,31.6,06.2,0000.0,0009.62,0002.08,0001.06
2022-03-29 01:50:00,,0814.7,4.98,0.00,29.9,29.0,00.0,38.8,31.6,06.3,0000.0,0009.44,0002.07,0001.06
2022-03-29 01:51:00,,0815.0,5.00,0.00,29.9,28.9,00.0,38.8,31.6,06.3,0000.0,0009.24,0002.04,0001.06
2022-03-29 01:52:00,,0814.6,5.00,0.00,30.0,28.9,00.0,38.8,31.6,06.4,0000.0,0009.14,0002.04,0001.07
2022-03-29 01:53:00,,0814.7,4.99,0.00,30.0,28.9,00.0,38.9,31.7,06.4,0000.0,0009.11,0002.00,0001.06
2022-03-29 01:54:00,,0814.4,5.00,0.00,30.0,29.0,00.0,38.9,31.7,06.4,0000.0,0008.67,0002.02,0001.08
2022-03-29 01:55:00,,0814.4,5.00,0.00,30.0,29.0,00.0,38.9,31.7,06.5,0000.0,0007.80,0002.04,0001.07
2022-03-29 01:56:00,,0814.4,5.01,0.00,30.0,28.8,00.0,38.9,31.7,06.5,0000.0,0006.07,0002.04,0001.06
2022-03-29 01:57:00,,0814.4,4.99,0.00,29.9,26.7,00.0,38.9,31.2,06.5,0000.0,0005.55,0002.01,0001.06
2022-03-29 01:58:00,,0814.4,5.01,0.00,29.8,25.6,00.0,38.9,31.0,06.6,0000.0,0006.29,0002.06,0001.07
2022-03-29 01:59:00,,0814.4,4.99,0.00,29.6,25.8,00.0,38.8,31.0,06.5,0000.0,0005.87,0002.04,0001.07
